Waarnemingen

Advertentie
Mijn weer
Malmo/Sturup, Zweden (2636): temperatuur & dauwpunt: 06.12.2017 07:00:00 - 12.12.2017 07:00:00 (CET)Malmo/Sturup, Zweden (2636): windsnelheid: 06.12.2017 07:00:00 - 12.12.2017 07:00:00 (CET)Malmo/Sturup, Zweden (2636): windrichting: 06.12.2017 07:00:00 - 12.12.2017 07:00:00 (CET)Malmo/Sturup, Zweden (2636): luchtdruk: 06.12.2017 07:00:00 - 12.12.2017 07:00:00 (CET)Malmo/Sturup, Zweden (2636): zicht: 06.12.2017 07:00:00 - 12.12.2017 07:00:00 (CET)
Datum & Tijd tt [°C] td [°C] ff [km/u] ff [kn] dd ppp [hPa] vv [km]
12.12.2017 07:00:00 1,1 0,9 4 2 - 984,3 0,8
12.12.2017 06:00:00 1,8 1,7 0 0 N 984,2 1,5
12.12.2017 05:00:00 1,9 1,8 5 3 O 984,2 2,2
12.12.2017 04:00:00 1,7 1,6 8 4 ONO 983,9 3,6
12.12.2017 03:00:00 1,5 1,4 11 6 O 984,1 5
12.12.2017 02:00:00 0,9 0,8 8 4 NO 984,3 4,5
12.12.2017 01:00:00 0,3 0,0 9 5 ONO 984,7 5
12.12.2017 00:00:00 0,2 0,1 5 3 ONO 985,9 2,2
11.12.2017 23:00:00 0,2 0,1 5 3 O 986,0 2,5
11.12.2017 22:00:00 0,9 0,3 9 5 ZO 986,2 5
11.12.2017 21:00:00 1,4 0,8 13 7 ZO 986,6 10
11.12.2017 20:00:00 1,1 0,5 11 6 O 986,3 4,0
11.12.2017 19:00:00 1,0 0,1 13 7 O 987,3 7
11.12.2017 18:00:00 1,3 0,0 16 9 ONO 987,0 10
11.12.2017 17:00:00 0,8 -0,7 18 10 NO 987,0 10
11.12.2017 16:00:00 0,6 -1,2 13 7 NO 987,7 10
11.12.2017 15:00:00 0,3 -1,5 15 8 NO 988,1 10
11.12.2017 14:00:00 0,5 -1,4 16 9 NNO 987,5 10
11.12.2017 13:00:00 0,4 -1,7 11 6 NNO 988,5 10
11.12.2017 12:00:00 0,4 -1,7 16 9 NO 987,5 10
11.12.2017 11:00:00 0,3 -1,5 16 9 NO 987,5 10
11.12.2017 10:00:00 -0,2 -1,6 21 11 NO 986,0 10
11.12.2017 09:00:00 -0,6 -1,3 15 8 NNW 987,1 10
11.12.2017 08:00:00 -0,9 -1,5 13 7 N 986,2 8
11.12.2017 07:00:00 -0,6 -1,4 13 7 NNO 985,1 10
11.12.2017 06:00:00 -0,9 -2,3 15 8 NO 984,6 7
11.12.2017 05:00:00 0,3 -3,8 15 8 O 984,0 10
11.12.2017 04:00:00 0,2 -3,5 18 10 ONO 983,8 10
11.12.2017 03:00:00 0,4 -3,5 15 8 ONO 983,7 10
11.12.2017 02:00:00 0,7 -3,2 16 9 OZO 983,6 10
11.12.2017 01:00:00 0,8 -3,1 11 6 OZO 984,0 10
11.12.2017 00:00:00 1,0 -2,8 15 8 ZO 984,4 10
10.12.2017 23:00:00 1,1 -2,5 15 8 ZO 984,5 10
10.12.2017 22:00:00 1,1 -2,7 18 10 ZO 985,0 10
10.12.2017 21:00:00 1,1 -2,1 22 12 ZO 985,3 10
10.12.2017 20:00:00 1,1 -2,3 22 12 ZZO 985,8 10
10.12.2017 19:00:00 1,5 -2,0 16 9 ZO 986,3 10
10.12.2017 18:00:00 0,6 -2,9 18 10 ZZO 987,1 10
10.12.2017 17:00:00 0,8 -2,7 21 11 ZZO 987,9 10
10.12.2017 16:00:00 1,2 -1,9 21 11 ZZO 988,2 10
10.12.2017 15:00:00 1,2 -1,9 18 10 Z 988,9 10
10.12.2017 14:00:00 0,6 0,0 15 8 ZZW 989,5 6
10.12.2017 13:00:00 1,0 -1,2 22 12 ZW 990,4 10
10.12.2017 12:00:00 1,6 -1,6 22 12 ZW 991,0 10
10.12.2017 11:00:00 1,4 -0,2 22 12 ZW 991,9 10
10.12.2017 10:00:00 1,4 -0,4 26 14 ZW 992,5 10
10.12.2017 09:00:00 1,2 -0,1 22 12 ZW 993,1 10
10.12.2017 08:00:00 1,4 0,5 24 13 ZW 993,5 10
10.12.2017 07:00:00 0,3 0,0 16 9 WZW 993,9 3,0
10.12.2017 06:00:00 0,4 -0,3 16 9 WZW 994,5 6
10.12.2017 05:00:00 1,0 0,0 22 12 WZW 995,0 10
10.12.2017 04:00:00 0,6 -0,2 21 11 WZW 995,4 10
10.12.2017 03:00:00 0,3 -0,3 24 13 WZW 996,0 2,5
10.12.2017 02:00:00 1,4 -0,5 18 10 WZW 996,4 10
10.12.2017 01:00:00 1,5 -0,4 22 12 WZW 996,8 10
10.12.2017 00:00:00 1,5 -0,4 24 13 WZW 997,2 10
09.12.2017 23:00:00 1,3 -0,9 21 11 WZW 997,4 10
09.12.2017 22:00:00 1,6 -1,0 18 10 WZW 997,6 10
09.12.2017 21:00:00 1,9 -0,7 16 9 WZW 997,5 10
09.12.2017 20:00:00 1,9 -1,0 18 10 WZW 997,9 10
09.12.2017 19:00:00 2,3 -0,6 21 11 W 997,6 10
09.12.2017 18:00:00 2,7 -1,3 22 12 W 997,4 10
09.12.2017 17:00:00 2,9 -1,3 21 11 W 997,0 10
09.12.2017 16:00:00 3,9 -0,9 24 13 W 996,8 10
09.12.2017 15:00:00 4,3 -0,5 28 15 W 996,2 10
09.12.2017 14:00:00 4,3 1,5 24 13 W 995,9 10
09.12.2017 13:00:00 4,4 1,1 26 14 W 995,7 10
09.12.2017 12:00:00 3,9 1,6 31 17 WZW 995,4 10
09.12.2017 11:00:00 4,1 1,6 22 12 WZW 995,3 10
09.12.2017 10:00:00 3,7 1,4 28 15 WZW 995,3 10
09.12.2017 09:00:00 3,6 1,5 26 14 WZW 994,7 10
09.12.2017 08:00:00 3,4 1,8 26 14 ZW 994,7 10
09.12.2017 07:00:00 3,2 2,0 31 17 WZW 994,4 10
09.12.2017 06:00:00 2,8 1,6 35 19 ZW 994,7 10
09.12.2017 05:00:00 2,3 0,8 37 20 ZW 994,8 9
09.12.2017 04:00:00 2,6 0,3 37 20 WZW 995,2 10
09.12.2017 03:00:00 2,6 0,7 34 18 WZW 995,6 10
09.12.2017 02:00:00 2,5 0,4 31 17 WZW 995,8 10
09.12.2017 01:00:00 2,5 0,7 28 15 WZW 996,0 10
09.12.2017 00:00:00 2,4 0,3 28 15 WZW 996,4 10
08.12.2017 23:00:00 2,3 -0,5 22 12 WZW 996,7 10
08.12.2017 22:00:00 3,0 -0,5 29 16 WZW 996,5 10
08.12.2017 21:00:00 2,8 -0,3 24 13 WZW 996,6 10
08.12.2017 20:00:00 2,9 0,6 28 15 WZW 996,6 10
08.12.2017 19:00:00 3,4 1,6 26 14 WZW 996,5 10
08.12.2017 18:00:00 3,1 0,8 24 13 WZW 996,3 10
08.12.2017 17:00:00 2,9 1,1 22 12 WZW 995,9 10
08.12.2017 16:00:00 3,2 1,0 18 10 WZW 995,7 10
08.12.2017 15:00:00 3,9 1,9 22 12 WZW 995,5 10
08.12.2017 14:00:00 4,0 2,0 24 13 WZW 995,4 10
08.12.2017 13:00:00 3,6 1,6 29 16 WZW 995,4 10
08.12.2017 12:00:00 4,0 1,9 34 18 WZW 995,4 10
08.12.2017 11:00:00 4,3 2,3 28 15 WZW 995,6 10
08.12.2017 10:00:00 4,6 2,5 28 15 WZW 995,6 10
08.12.2017 09:00:00 4,3 2,0 22 12 WZW 995,3 10
08.12.2017 08:00:00 4,5 2,4 28 15 WZW 994,7 10
08.12.2017 07:00:00 4,1 2,1 24 13 WZW 994,6 10
08.12.2017 06:00:00 4,4 2,4 22 12 WZW 994,4 10
08.12.2017 05:00:00 4,9 3,2 24 13 WZW 994,3 10
08.12.2017 04:00:00 5,3 4,0 22 12 WZW 994,3 10
08.12.2017 03:00:00 5,5 4,5 26 14 WZW 994,6 10
08.12.2017 02:00:00 6,0 5,1 28 15 WZW 995,0 10
08.12.2017 01:00:00 5,7 5,0 29 16 ZW 994,8 10
08.12.2017 00:00:00 5,5 4,6 34 18 WZW 995,4 10
07.12.2017 23:00:00 5,5 4,5 34 18 WZW 995,7 10
07.12.2017 22:00:00 5,9 4,7 35 19 ZW 996,2 10
07.12.2017 21:00:00 5,4 4,5 37 20 ZW 997,0 9
07.12.2017 20:00:00 5,2 4,5 39 21 ZW 997,8 5
07.12.2017 19:00:00 5,4 4,2 37 20 ZW 998,9 10
07.12.2017 18:00:00 5,4 4,2 39 21 ZW 999,9 7
07.12.2017 17:00:00 5,6 3,3 39 21 ZW 1000,8 10
07.12.2017 16:00:00 5,7 3,0 35 19 ZW 1001,7 10
07.12.2017 15:00:00 5,3 2,5 37 20 ZW 1003,0 10
07.12.2017 14:00:00 5,7 3,2 37 20 ZW 1003,6 10
07.12.2017 13:00:00 5,5 2,8 37 20 ZW 1004,8 10
07.12.2017 12:00:00 5,5 2,7 35 19 ZW 1006,1 10
07.12.2017 11:00:00 5,9 2,7 34 18 ZW 1007,5 10
07.12.2017 10:00:00 6,2 3,4 34 18 ZW 1008,0 9
07.12.2017 09:00:00 6,5 3,8 34 18 WZW 1008,6 9
07.12.2017 08:00:00 6,8 4,1 34 18 WZW 1009,2 8
07.12.2017 07:00:00 6,8 4,6 29 16 ZW 1009,6 10
07.12.2017 06:00:00 6,9 5,2 35 19 ZW 1010,0 8
07.12.2017 05:00:00 7,0 5,5 28 15 WZW 1010,4 8
07.12.2017 04:00:00 7,0 5,1 26 14 WZW 1011,3 10
07.12.2017 03:00:00 7,2 5,3 22 12 WZW 1011,9 10
07.12.2017 02:00:00 7,1 5,6 24 13 WZW 1012,5 10
07.12.2017 01:00:00 7,6 5,7 28 15 WZW 1013,1 10
07.12.2017 00:00:00 7,3 5,4 24 13 WZW 1013,5 10
06.12.2017 23:00:00 7,9 6,4 22 12 W 1013,9 10
06.12.2017 22:00:00 7,8 6,3 26 14 W 1014,2 10
06.12.2017 21:00:00 7,8 6,4 26 14 W 1014,3 10
06.12.2017 20:00:00 7,8 6,7 28 15 W 1014,3 8
06.12.2017 19:00:00 8,0 7,2 31 17 W 1014,0 8
06.12.2017 18:00:00 7,7 7,3 29 16 W 1013,7 2,0
06.12.2017 17:00:00 7,7 7,3 29 16 W 1013,4 3,0
06.12.2017 16:00:00 7,7 7,3 31 17 W 1013,4 2,7
06.12.2017 15:00:00 7,7 7,3 31 17 W 1013,0 2,3
06.12.2017 14:00:00 8,1 7,7 29 16 W 1013,3 2,0
06.12.2017 13:00:00 7,4 7,0 29 16 W 1013,4 2,5
06.12.2017 12:00:00 7,1 6,7 31 17 W 1013,5 2,6
06.12.2017 11:00:00 7,0 6,7 28 15 W 1013,9 3,0
06.12.2017 10:00:00 6,5 6,2 26 14 W 1014,3 2,0
06.12.2017 09:00:00 6,5 5,9 29 16 W 1014,7 8
06.12.2017 08:00:00 6,7 6,0 29 16 W 1014,9 7
06.12.2017 07:00:00 6,8 5,9 34 18 W 1015,0 10

tt = temperatuur
td = dauwpunt
ff = windsnelheid
dd = windrichting
ppp = luchtdruk
vv = zicht

Weerstations in de omgeving